Regional Weather Roundup
Issued by NWS

Home | Current Version | Previous Version | Text Only | Print | Product List | Glossary Off
Versions: 1 2 3 4 5 6 7 8 9 10 11 12 13 14 15 16 17 18 19 20 21 22 23 24 25 26 27 28 29 30 31 32 33 34 35 36 37 38 39 40 41 42 43 44 45 46 47 48 49 50

000
ASUS43 KMPX 232301
RWRMN
WEATHER ROUNDUP FOR MINNESOTA
NATIONAL WEATHER SERVICE TWIN CITIES/CHANHASSEN MN
600 PM CDT TUE AUG 23 2016


NOTE: "FAIR" INDICATES FEW OR NO CLOUDS BELOW 12,000 FEET WITH NO
SIGNIFICANT WEATHER AND/OR OBSTRUCTIONS TO VISIBILITY. N/A MEANS
CURRENT SKY AND/OR WEATHER CONDITIONS ARE NOT AVAILABLE.

MNZ060>063-068>070-240000-
   Twin Cities Metro

CITY           SKY/WX    TMP DP  RH WIND       PRES   REMARKS
TWIN CITIES    CLOUDY    80  64  58 S18G25    29.91R
ST PAUL        CLOUDY    78  65  63 S15       29.92R
CRYSTAL        CLOUDY    79  62  56 S21G30    29.89R
BLAINE         CLOUDY    81  64  57 S16G28    29.91R
LAKEVILLE      CLOUDY    73  64  73 S6        29.92F
EDEN PRAIRIE   CLOUDY    79  64  60 S14       29.89S
LAKEVILLE      CLOUDY    73  64  73 S6        29.92F
SOUTH ST PAUL  CLOUDY    78  64  60 S9        29.92S
LAKE ELMO      FAIR      77  66  69 S14       29.94R
$$
MNZ001>005-007-008-013>017-022>024-027-028-240000-
   Northwest Minnesota

CITY           SKY/WX    TMP DP  RH WIND       PRES   REMARKS
BEMIDJI        SUNNY     83  69  60 S13G21    29.78R
HALLOCK        PTSUNNY   82  70  65 S10       29.63F
ROSEAU         PTSUNNY   82  72  69 S3        29.68F
WARROAD        CLOUDY    79  72  78 CALM      29.69S
THIEF RVR FALL SUNNY     85  69  58 S21G28    29.69R
CROOKSTON      MOSUNNY   86  68  54 S18G25    29.68R
FOSSTON        SUNNY     84  64  51 S25       29.75S
DETROIT LAKES  SUNNY     82  68  61 S18       29.78F
MOORHEAD       SUNNY     86  63  45 S22G30    29.72S
PARK RAPIDS    PTSUNNY   83  69  62 S21G30    29.81R
MAHNOMEN       FAIR      82  68  62 S21G29    29.75S
$$
MNZ006-009>011-018-025>026-240000-
   North Central Minnesota

CITY           SKY/WX    TMP DP  RH WIND       PRES   REMARKS
BAUDETTE       CLOUDY    85  68  56 S15       29.70R
FLAG ISLAND    CLOUDY    75  70  83 CALM      29.69S HAZE
INTL FALLS     SUNNY     84  66  54 S10G20    29.74S
WASKISH        SUNNY     84  70  61 S9G18     29.73S
BIG FORK       SUNNY     82  66  57 S14       29.81R
LONGVILLE      MOSUNNY   82  70  65 S14G23    29.83R
GRAND RAPIDS   SUNNY     82  68  62 S15G23    29.85R
CRANE LAKE     PTSUNNY   81  68  65 S5        29.82R
ORR            MOSUNNY   84  63  48 S7G18     29.78F
COOK           SUNNY     82  66  57 S10G17    29.83S
WALKER         MOCLDY    82  69  65 S14G22    29.80R
$$
MNZ012-019>021-037-240000-
   Northeast Minnesota

CITY           SKY/WX    TMP DP  RH WIND       PRES   REMARKS
DULUTH         MOSUNNY   82  68  62 S17       29.89R
ELY            MOSUNNY   82  63  51 SW10G17   29.86S
HIBBING        SUNNY     80  66  62 S7        29.85S
EVELETH        SUNNY     81  64  54 S16G23    29.87S
DULUTH HARBOR  MOSUNNY   84  70  61 S17       29.86R
TWO HARBORS    PTSUNNY   81  70  69 SE5       29.87R
SILVER BAY     MOSUNNY   77  66  69 S3        29.88R
GRAND MARAIS     N/A     74  65  73 E5        29.88S
G MARAIS ARPRT SUNNY     73  63  68 S5        29.95S
$$
MNZ029>031-032-039>041-046>048-054>057-064-240000-
   West Central Minnesota

CITY           SKY/WX    TMP DP  RH WIND       PRES   REMARKS
FERGUS FALLS   CLOUDY    82  66  57 S18G25    29.79S
WHEATON        CLOUDY    82  66  57 S14G23    29.79S
MORRIS         CLOUDY    82  68  61 S16       29.81S
ALEXANDRIA     CLOUDY    79  69  71 S15G23    29.85S
ELBOW LAKE     FAIR      80  65  62 S17G25    29.81S
WADENA         PTSUNNY   81  70  69 S16G24    29.82S
GLENWOOD       CLOUDY    81  70  69 S22       29.85S
APPLETON       CLOUDY    81  66  61 S12G18    29.80S
BENSON         CLOUDY    79  66  65 S10G21    29.82S
ORTONVILLE     CLOUDY    79  66  65 S13G18    29.79F
MADISON        PTSUNNY   77  66  69 SE14      29.81S
WILLMAR        FAIR      79  72  78 SE9G17    29.86S
$$
MNZ033>034-036-042>043-049>051-058-059-240000-
   Central Minnesota

CITY           SKY/WX    TMP DP  RH WIND       PRES   REMARKS
ST CLOUD       CLOUDY    79  71  76 S17G26    29.87R
SAUK CENTRE    FAIR      79  70  74 S17G24    29.85S
PAYNESVILLE    CLOUDY    78  70  74 SE9G16    29.87S
AITKIN         CLOUDY    82  66  57 S13G23    29.84R
PINE RIVER     PTSUNNY   81  70  69 S10G18    29.87R
BRAINERD       CLOUDY    80  69  69 S18       29.85R
STAPLES        CLOUDY    79  68  69 S14G24    29.84R
LONG PRAIRIE   CLOUDY    77  70  78 SE13G23   29.85S
LITTLE FALLS   CLOUDY    79  68  69 S14       29.86S
LITCHFIELD     CLOUDY    79  72  78 SE6       29.88S
BUFFALO        CLOUDY    78  65  65 SE8       29.89F
MAPLE LAKE     PTSUNNY   78  70  75 SE8       29.89S
HUTCHINSON     LGT RAIN  76  71  84 SE7       29.87F
$$
MNZ037-044-045-052-053-240000-
   East Central Minnesota

CITY           SKY/WX    TMP DP  RH WIND       PRES   REMARKS
PRINCETON      CLOUDY    81  72  74 S9        29.89R
MORA           CLOUDY    77  68  73 S10       29.91R
CAMBRIDGE      CLOUDY    82  68  61 SE12G18   29.88S
RUSH CITY      CLOUDY    78  69  74 S8        29.91R
MOOSE LAKE     PTSUNNY   79  68  69 S10G18    29.87R
HINCKLEY       FAIR      79  72  78 S9G16     29.90R
CLOQUET        MOSUNNY   81  64  57 S13G25    29.89R
MCGREGOR       CLOUDY    81  68  65 S14       29.87R
$$
MNZ071>073-080-081-089-090-097-098-240000-
   Southwest Minnesota

CITY           SKY/WX    TMP DP  RH WIND       PRES   REMARKS
MONTEVIDEO     CLOUDY    79  70  73 S9G16     29.84F
GRANITE FALLS  CLOUDY    77  70  80 SE13      29.84F
CANBY          CLOUDY    76  69  77 S12G17    29.83S
MARSHALL       CLOUDY    69  66  90 S17       29.83S
REDWOOD FALLS  CLOUDY    74  70  87 SE12      29.84S
OLIVIA         CLOUDY    73  70  88 SE12      29.84F
PIPESTONE      CLOUDY    68  64  88 S8        29.85S
WINDOM         TSTM      66  64  94 S7        29.89S
WORTHINGTON    LGT RAIN  68  66  93 S13       29.84F
JACKSON        TSTM      64  63  94 SW5       29.90S
$$
MNZ065>067-074>077-082>085-091>093-240000-
   South Central Minnesota

CITY           SKY/WX    TMP DP  RH WIND       PRES   REMARKS
MANKATO        CLOUDY    72  64  78 S12G18    29.91R THUNDER
NEW ULM          N/A     68  66  94 S17       29.86F
ST JAMES       CLOUDY    61  61 100 SE8       29.88F
FAIRMONT         N/A    N/A N/A N/A MISG        N/A
GLENCOE        LGT RAIN  76  70  81 SE8G16    29.86F
FARIBAULT      CLOUDY    75  64  69 SE15G21   29.92F
OWATONNA       CLOUDY    75  64  69 SE13G25   29.92F
WASECA         TSTM      72  66  83 S13G23    29.94F
ALBERT LEA     TSTM      70  64  83 E13       29.92F
$$
MNZ078>079-086>088-094>096-240000-
   Southeast Minnesota

CITY           SKY/WX    TMP DP  RH WIND       PRES   REMARKS
ROCHESTER      PTSUNNY   74  64  71 S10       29.99R
RED WING       CLOUDY    79  63  57 S12       29.94S
STANTON        CLOUDY    77  63  61 S14G21    29.92F
DODGE CENTER   CLOUDY    73  63  68 S10       29.98S
WINONA         CLOUDY    77  63  61 S7        29.97F
AUSTIN         CLOUDY    72  64  78 S3        29.97F
PRESTON        CLOUDY    73  63  69 S8        29.99F
$$
ABBREVIATIONS USED IN REMARKS
   TC - TEMPERATURES IN CELSIUS
  WCI - WIND CHILL INDEX
   HX - HEAT INDEX
  VSB - VISIBILITY
$$




USA.gov is the U.S. government's official web portal to all federal, state and local government web resources and services.